Find Starlink 30847

NORAD ID: 58239 Int'l Des: 2023-171 Owner: SPXS Country: US Constellation: starlink operational
LEOCIRCULAR

Live Position

Loading 3D Globe...

About Starlink 30847

Description loading...

Upcoming Passes

Passes for default location (London). Set your location on the main map for personalized predictions.

Altitude History

Loading altitude history...

Two-Line Element Set

1 58239U 23171K 26126.56543302 .00000540 00000-0 29142-4 0 9997
2 58239 43.0026 318.5691 0001574 269.6346 90.4325 15.27570786138586
Epoch: May 6, 2026 • Age: 11 hours

Current Status

Altitude 482.4 km
Velocity 7.63 km/s
Sub-Earth Point 11.57°N, 94.26°E
Launch Date Nov 8, 2023
Age 2.4 years
Type internet

Technical Details

Classification Payload
Mass 730.00 kg
Dry Mass 700.00 kg
Total Mass 730.00 kg
Length 0.30 m
Diameter 4.10 m
Span 29.00 m
Shape Box + pan
Manufacturer SPXS
Bus Type Starlink V2M
Phase Status In Orbit
Owner/State SPXS/US

Most Searched